RH
26 46 76 96 72 70 67 81 88 94 95 75 58 53 67 64 57 44 22 23 26 28 26 32 38 45 46 45 43 40 43 47 46 45 41 42 43 41 40 38 34 30 26
19 31 44 72 76 91 95 77 76 76 68 81 79 42 63 72 66 50 29 21 23 25 24 23 25 30 32 33 35 40 40 39 39 38 32 24 23 23 23 21 20 21 21
18 21 31 46 71 82 90 91 78 66 44 71 70 48 52 55 66 56 40 30 23 24 23 24 24 24 23 24 24 24 23 22 21 20 20 20 21 21 22 23 23 23 21
20 21 22 27 40 60 82 79 79 81 80 64 58 64 36 49 59 55 49 39 34 28 27 24 25 25 23 23 23 23 23 23 24 26 27 28 28 27 25 26 26 25 24
21 22 23 23 24 28 36 45 82 86 75 82 74 66 42 35 53 60 56 49 41 36 31 30 27 26 25 24 26 27 28 29 32 33 31 29 28 25 25 25 26 25 25
22 20 22 22 22 22 23 28 39 53 80 71 62 68 51 48 38 52 60 59 55 46 41 34 32 31 32 31 34 36 36 38 37 34 32 32 31 28 27 28 29 30 28
28 22 20 20 20 22 22 22 24 35 46 49 64 57 51 39 39 42 50 62 62 60 49 41 38 36 37 39 36 38 39 40 40 36 35 34 33 31 31 31 32 32 28
33 30 25 23 21 19 20 22 22 25 28 34 55 70 69 44 46 40 44 52 68 66 63 56 51 42 44 46 46 41 42 43 40 37 37 36 34 35 36 36 33 32 34
23 26 28 28 26 24 22 21 23 24 34 34 35 69 78 78 74 79 55 48 60 76 73 70 68 63 48 50 51 55 57 50 43 40 40 40 40 40 39 37 35 38 34
28 27 23 23 25 24 24 23 21 21 23 35 34 32 74 89 100 98 84 64 55 66 87 79 77 76 80 58 55 56 60 59 57 50 44 42 44 45 42 42 43 44 39
31 27 26 25 24 24 22 22 22 21 21 23 28 40 35 71 89 99 100 98 67 66 76 97 87 80 88 91 70 60 68 68 62 63 51 50 52 53 62 70 67 61 54
61 43 32 31 29 27 25 23 20 20 22 23 24 27 40 43 62 91 96 91 99 78 70 97 100 94 84 88 97 90 88 82 73 73 66 71 72 75 83 80 79 60 62
47 54 58 48 40 32 29 27 24 23 18 19 22 25 27 36 43 55 91 99 84 90 78 84 100 100 91 81 85 100 100 100 97 87 78 77 73 74 72 73 76 63 59
43 43 49 53 52 41 36 28 27 24 22 21 17 19 23 28 33 41 50 78 100 94 80 86 87 100 100 100 100 98 94 93 88 89 97 96 79 64 66 71 80 74 64
62 42 42 37 36 41 43 37 28 25 26 24 22 19 17 21 26 31 36 45 70 99 96 76 83 84 100 100 100 100 100 100 100 97 85 80 76 72 78 97 95 100 87
64 60 47 38 31 29 33 36 36 32 26 23 24 23 21 18 19 22 30 32 40 63 98 97 85 93 91 100 100 100 100 100 100 100 100 100 87 97 100 99 100 100 100
52 51 48 45 34 27 24 23 28 30 28 28 24 22 22 21 20 19 20 25 29 34 61 97 95 94 100 98 100 100 100 100 100 100 100 100 100 100 100 100 100 99 100
41 37 39 38 33 28 23 24 24 28 30 28 27 24 22 21 22 20 20 20 20 28 34 55 74 100 100 100 100 100 100 100 100 96 100 100 100 100 100 100 100 100 100
23 25 28 29 30 32 27 23 22 22 25 26 28 28 24 22 21 21 20 19 20 20 25 34 50 64 97 99 95 98 100 100 100 100 100 98 100 100 100 100 100 100 100
20 18 18 19 21 24 27 26 22 18 17 18 21 25 25 24 22 21 20 19 19 21 21 24 34 54 63 68 92 85 90 100 100 100 100 99 95 100 100 100 100 100 100
18 19 17 19 19 20 20 19 18 17 16 16 16 17 19 21 21 21 20 19 17 16 20 22 23 30 49 94 96 100 98 90 100 100 100 100 99 96 100 100 99 90 100
17 18 18 17 18 19 19 18 18 16 16 16 15 15 15 15 17 18 20 20 19 18 15 20 22 22 32 96 100 100 100 100 98 100 100 100 100 100 100 100 100 100 98
17 17 19 18 17 16 17 18 17 16 16 16 16 15 14 14 14 14 14 18 19 20 19 17 18 22 22 100 100 97 100 100 100 100 100 100 100 100 100 100 100 100 100
18 18 19 19 19 18 18 19 17 17 17 17 16 16 15 16 16 13 12 12 13 17 18 18 16 19 23 27 99 100 100 100 100 100 100 100 100 100 100 100 100 100 92
16 17 18 20 20 22 21 20 19 17 17 18 17 16 16 16 17 16 15 11 8 7 12 14 17 16 20 24 26 100 100 100 100 100 100 100 100 100 100 98 99 97 99
15 16 17 20 22 25 25 23 21 18 17 18 17 17 16 16 14 12 10 9 9 7 6 9 13 17 18 21 28 27 98 100 100 100 100 100 100 100 98 95 94 95 100
Wind_Speed
46 47 44 43 42 42 41 37 35 32 30 27 25 23 23 20 17 15 16 16 17 18 18 20 19 20 19 20 20 20 20 20 21 21 22 21 20 20 20 19 20 19 20
49 51 50 47 47 46 44 40 38 37 36 35 30 28 27 26 23 19 18 19 18 18 20 20 21 22 21 21 20 20 20 20 20 19 18 17 18 18 17 17 16 16 18
51 51 52 51 49 48 46 43 41 41 40 39 34 32 33 32 29 26 22 21 21 19 20 22 22 22 22 22 22 21 21 21 20 19 18 19 18 17 17 16 16 16 15
53 53 54 53 53 51 50 49 47 45 44 43 40 37 37 36 35 30 28 26 23 23 22 22 23 23 24 23 23 22 22 21 19 19 19 19 18 18 18 16 15 14 15
52 55 56 56 56 56 55 53 50 48 48 46 43 42 40 41 40 37 34 31 30 27 25 25 24 23 23 24 23 22 22 21 20 19 19 19 19 19 18 18 17 17 16
50 54 56 57 56 56 55 54 53 52 49 48 48 46 43 43 44 42 40 38 35 33 31 29 27 26 24 24 23 23 24 22 21 21 21 20 19 19 19 18 18 18 18
46 51 54 56 58 57 56 56 55 53 52 49 48 50 48 46 45 46 45 43 41 38 36 34 32 30 28 26 25 24 23 23 23 22 22 22 20 20 19 19 20 20 20
40 46 51 53 55 58 58 58 58 56 55 52 49 50 50 49 49 48 49 48 46 44 41 40 37 35 33 30 28 28 27 27 27 24 22 21 20 20 20 20 21 22 23
36 41 45 49 52 55 58 59 60 60 57 56 54 51 50 51 52 51 51 51 51 48 47 46 43 41 40 37 35 33 31 30 28 26 25 23 22 22 21 22 22 23 24
38 41 43 46 49 52 54 57 60 61 61 60 58 57 53 52 52 56 55 54 54 54 51 50 48 46 43 42 41 38 35 34 32 31 28 26 24 23 23 24 23 25 26
39 41 44 45 47 49 52 55 58 61 63 63 63 61 61 59 58 58 57 57 56 56 57 54 53 51 49 46 46 43 40 39 38 35 32 30 27 25 25 26 27 27 28
41 41 44 47 50 52 53 54 56 58 61 63 65 66 65 66 64 62 61 61 59 59 59 58 57 57 55 52 50 48 46 43 43 40 37 34 31 30 28 28 29 29 30
49 48 48 48 50 53 55 57 59 60 60 62 64 67 69 69 69 68 65 63 64 63 61 63 62 60 59 57 54 52 50 47 47 44 41 40 37 34 33 31 30 30 31
55 57 56 56 52 53 58 60 61 63 64 65 65 67 69 72 73 73 72 70 66 66 65 64 66 65 62 61 59 58 56 53 52 49 45 43 41 38 35 33 33 33 32
61 61 62 63 60 58 56 60 65 66 66 68 69 69 69 71 74 77 77 76 73 69 66 66 67 68 68 65 63 62 61 58 56 53 50 49 46 41 39 37 36 33 34
69 68 66 65 65 63 63 63 63 67 70 71 72 73 73 73 74 77 80 80 79 77 73 70 72 70 70 70 67 65 64 62 60 58 53 53 47 45 42 41 39 36 36
74 74 70 69 68 67 66 68 67 68 72 74 75 76 77 78 78 78 80 82 83 83 79 78 74 73 72 72 73 71 68 66 64 61 59 55 51 48 44 43 44 41 39
77 76 75 74 74 72 70 69 70 70 73 77 78 79 81 81 82 82 82 83 84 88 87 83 82 77 76 74 73 75 74 72 68 65 62 61 56 53 48 46 44 44 43
76 76 78 78 78 77 75 73 73 74 76 78 82 81 82 84 85 86 87 86 88 89 90 90 86 85 80 79 79 76 76 78 75 70 66 64 61 56 53 49 46 47 47
75 73 72 73 73 74 75 75 76 78 78 80 83 86 87 87 87 89 90 91 91 92 92 93 92 87 83 82 82 82 80 78 79 76 72 70 64 60 56 54 51 50 50
73 72 73 72 71 70 70 71 72 74 74 76 81 86 90 92 93 93 94 95 96 96 95 96 96 93 88 71 67 76 86 84 81 78 76 74 71 67 59 58 58 56 53
75 73 72 72 71 70 70 70 71 70 70 74 76 79 84 89 94 98 98 99 100 100 100 100 100 96 88 76 68 78 82 89 84 79 78 76 74 72 68 63 59 58 57
73 72 72 72 70 69 68 67 66 67 69 71 74 76 80 83 88 91 96 101 103 104 104 104 102 102 95 91 83 68 74 81 86 82 82 81 78 74 72 68 68 64 61
72 73 70 72 71 69 66 65 63 63 65 68 71 75 77 82 85 86 88 94 101 107 108 108 106 104 105 107 99 64 75 81 87 87 85 85 85 83 79 77 74 70 66
70 72 72 71 71 71 69 65 61 61 59 64 68 71 74 77 80 88 91 93 93 95 104 107 108 108 109 110 107 101 92 81 89 90 89 86 86 85 84 80 75 69 66
70 72 71 71 71 71 70 67 65 63 59 61 66 68 71 71 77 85 88 91 92 90 90 99 107 109 111 111 114 111 109 97 93 90 94 91 87 84 81 79 75 71 69
Wind_Direction
231 230 228 230 236 239 242 241 247 243 243 252 247 239 239 238 235 238 232 224 222 221 213 214 209 207 211 213 212 214 214 217 220 225 232 238 243 246 247 251 258 262 267
230 228 231 231 236 240 241 240 240 242 243 246 245 242 239 236 235 232 235 228 225 224 225 218 212 212 211 214 216 216 215 217 221 227 231 235 239 244 249 255 261 265 268
228 229 230 232 233 236 240 242 241 242 242 242 243 241 240 236 232 232 229 231 229 227 225 226 219 214 211 212 211 213 215 219 224 227 233 237 239 244 251 257 262 265 275
226 226 228 230 232 234 236 239 239 240 241 240 242 240 241 239 237 231 230 228 230 230 229 226 224 221 219 215 216 217 218 219 222 229 235 242 247 251 254 251 255 268 276
229 226 226 228 231 234 236 237 238 240 240 241 242 240 239 240 237 236 232 230 231 230 231 231 226 224 227 222 219 219 222 228 234 239 242 246 251 254 254 256 259 269 277
234 231 228 228 231 234 236 238 240 239 238 241 240 239 237 237 239 236 236 234 233 234 233 233 231 225 227 229 226 229 233 236 238 240 244 249 253 255 259 261 266 273 282
237 237 235 231 230 231 234 236 237 237 239 239 240 239 238 236 237 238 235 236 235 234 234 234 235 236 231 231 232 233 238 241 244 246 249 253 256 258 260 263 270 275 285
241 240 239 238 237 235 233 234 236 237 237 237 236 238 237 235 235 236 237 236 236 235 234 234 235 238 237 236 236 238 240 244 248 251 250 251 253 256 258 263 271 276 285
241 241 241 241 240 238 238 237 236 235 236 237 234 234 236 235 235 235 236 236 235 236 235 236 235 235 238 240 239 244 247 246 248 250 250 252 257 260 262 267 273 280 286
246 243 242 242 242 242 240 239 238 236 236 236 236 234 233 233 235 234 234 234 235 235 235 236 236 234 236 238 238 238 243 246 247 249 251 250 253 259 265 272 277 282 288
253 250 247 247 246 244 244 242 240 239 238 236 235 235 235 233 232 235 233 234 234 235 234 236 237 237 236 237 239 239 241 245 246 248 247 251 254 258 265 271 274 279 284
251 250 249 250 250 249 246 244 244 241 240 238 236 234 234 235 234 234 236 234 234 234 235 234 237 238 238 236 238 241 242 244 248 249 250 251 256 258 260 266 274 278 281
248 247 247 249 250 248 247 246 244 244 243 240 239 237 234 235 235 234 234 236 234 233 234 235 235 238 240 240 238 240 242 243 245 248 251 252 255 257 259 264 269 273 278
257 251 248 249 252 251 247 246 244 245 244 244 240 238 238 236 235 235 235 235 236 235 233 234 236 236 237 241 241 241 243 245 246 247 249 251 254 256 259 262 266 273 278
262 259 255 253 250 247 250 250 247 244 243 244 243 241 238 237 237 236 235 235 235 235 235 235 237 237 236 238 240 243 244 244 245 246 247 252 255 257 259 261 262 265 274
264 263 259 257 253 249 247 248 250 248 245 243 243 243 242 239 238 238 237 236 236 235 234 233 235 237 238 237 239 240 243 246 248 250 251 249 250 251 257 260 262 260 265
263 261 260 258 257 253 250 248 247 248 247 245 244 243 242 241 239 238 238 238 237 236 236 235 235 236 238 238 238 239 242 242 244 247 249 250 251 250 253 260 257 260 259
261 261 260 260 259 256 254 251 247 248 248 246 244 243 242 240 240 240 238 238 238 237 236 235 234 235 236 238 239 239 239 242 242 243 246 250 251 253 252 255 260 257 262
262 261 260 259 258 258 257 254 251 248 247 247 245 244 242 242 242 241 240 237 237 237 236 235 235 235 236 238 239 240 239 240 241 242 243 246 250 252 253 253 254 258 259
264 263 262 260 258 256 256 255 254 253 250 246 245 244 243 242 241 241 241 241 238 236 236 236 235 235 235 240 243 244 244 242 241 242 243 245 246 249 250 250 251 255 257
264 263 261 261 259 258 257 255 254 252 251 250 248 245 244 243 242 242 241 241 242 239 235 235 235 233 234 236 241 242 245 244 242 241 243 245 246 246 247 250 251 249 254
263 262 259 257 257 257 257 256 256 255 253 250 249 248 248 245 243 242 242 242 241 240 239 235 234 234 230 231 238 239 241 243 242 241 240 242 245 244 244 246 249 252 253
263 259 258 257 255 255 255 255 256 255 254 252 251 250 250 248 247 244 242 241 241 240 240 238 234 232 230 222 224 238 245 242 238 238 239 240 241 243 243 244 250 251 251
259 256 255 254 255 256 256 256 255 255 255 253 251 250 251 250 249 249 246 242 241 240 239 238 236 231 229 229 225 228 237 235 237 237 237 238 240 242 243 247 249 251 253
254 253 252 251 252 254 256 258 258 256 255 256 254 252 252 252 250 249 247 247 245 242 241 240 237 235 231 230 228 223 232 234 237 238 237 238 241 243 246 248 249 251 254
250 249 249 249 250 252 255 258 259 260 258 259 257 256 255 256 254 252 250 249 249 250 245 240 239 235 234 230 229 229 230 235 235 237 238 237 238 241 244 247 250 252 253